Regional Weather Roundup
Issued by NWS Green Bay, WI

Home | Current Version | Previous Version | Text Only | Print | Product List | Glossary On
Versions: 1 2 3 4 5 6 7 8 9 10 11 12 13 14 15 16 17 18 19 20 21 22 23 24 25 26 27 28 29 30 31 32 33 34 35 36 37 38 39 40 41 42 43 44 45 46 47 48 49 50
000
ASUS43 KGRB 250110
RWRGRB

NORTH-CENTRAL AND NORTHEAST WISCONSIN REGIONAL WEATHER ROUNDUP
NATIONAL WEATHER SERVICE GREEN BAY WI
700 PM CST SAT JAN 24 2015

WIZ005-009-010>012-018-019-250200-
NORTH CENTRAL WISCONSIN

CITY           SKY/WX    TMP DP  RH WIND       PRES   REMARKS
IRONWOOD       CLOUDY    19  14  79 E15       29.68R WCI   5
MANITOWISH WTR CLOUDY    22  19  89 NE9       29.66R
ARBOR VITAE    CLOUDY    27  23  85 NE6       29.65R
EAGLE RIVER    CLOUDY    24  20  85 NE10      29.65R
LAND O LAKES   CLOUDY    22  19  88 NE10      29.68R
RHINELANDER    CLOUDY    29  24  82 NE9       29.63R
PHILLIPS       CLOUDY    32  29  90 NE9       29.62R
ANTIGO         CLOUDY    33  27  79 NE7       29.61S
TOMAHAWK       CLOUDY    33  28  83 CALM      29.62R
MERRILL        CLOUDY    35  30  83 NE6       29.61S
$$

WIZ013-073-250200-
NORTHEAST WISCONSIN

CITY           SKY/WX    TMP DP  RH WIND       PRES   REMARKS
IRON MOUNTAIN  CLOUDY    23  16  74 N10       29.68R
MARINETTE      CLOUDY    28  19  69 NE10      29.70R
OCONTO         CLOUDY    29  25  84 E9G17     29.69R
$$

WIZ017-030-035>037-045-250200-
CENTRAL WISCONSIN

CITY           SKY/WX    TMP DP  RH WIND       PRES   REMARKS
MEDFORD        CLOUDY    33  30  89 CALM      29.60R
WAUSAU         CLOUDY    35  30  82 CALM      29.60R
MOSINEE        MOCLDY    34  32  93 W3        29.62R
MARSHFIELD     CLOUDY    32  29  88 SW3       29.62R
WISC RAPIDS    CLOUDY    32  28  85 CALM      29.65R
STEVENS POINT  CLOUDY    31  29  94 CALM      29.63R
WAUPACA        CLOUDY    34  31  88 CALM      29.63S
SHAWANO        CLOUDY    35  31  84 E16       29.65R
CLINTONVILLE   CLOUDY    34  32  93 CALM      29.63S
$$

WIZ038-039-048-051-250200-
FOX VALLEY

CITY           SKY/WX    TMP DP  RH WIND       PRES   REMARKS
NWS GREEN BAY  CLOUDY    30  27  88 NE20      29.67R
APPLETON       CLOUDY    34  30  86 W6        29.64R
OSHKOSH        CLOUDY    34  30  85 CALM      29.64S
FOND DU LAC    CLOUDY    35  30  82 MISG      29.64F
$$

WIZ022-050-052-250200-
EAST CENTRAL WISCONSIN

CITY           SKY/WX    TMP DP  RH WIND       PRES   REMARKS
STURGEON BAY   CLOUDY    27  21  80 NE10      29.70R
MANITOWOC      LGT RAIN  35  33  92 W5        29.65R
SHEBOYGAN      CLOUDY    35  31  85 W5        29.64R
$$

LMZ563-521-522-541>543-250200-
LAKESHORE

STATION/POSITION TIME  TEMP    WIND        PRES    VSBY  WAVE
                       AIR SEA DIR/SP/G                  HT/PER
                 (UTC) (F)     (DEG/KT/KT) (MB)    (MI)  (FT/S)
SHEBOYGAN LKSHOR 0100   36     290/  4/  5 1004.9R
KEWAUNEE LKSHORE 0100   31      50/ 18/ 22 1004.0R
NORTHPORT PIER   0100   25     360/ 18/ 22 1006.4R
SISTER BAY LKSHO 0100   25      10/ 15/ 20   N/A
CHAMBERS ISLAND  0100   26      10/ 18/ 21 1006.1S
MENOMINEE LKSHOR 0100   27      40/ 20/ 25 1006.4R
$$


USA.gov is the U.S. government's official web portal to all federal, state and local government web resources and services.